Location: Friaudour
(46.0460°N, 1.2873°E)
Time: 06:59:53
(UTC+00:00)

Lacrosse 5 - Pass Details

Date: 14 July 2020
Orbit: 717 x 720 km, 57.0° (Epoch: 11 August)

Event Time Altitude Azimuth Distance (km) Brightness Sun altitude
Rises 03:32:31 0° 294° (WNW) 3,126 4.9 -7.1°
Reaches altitude 10° 03:35:21 10° 309° (NW) 2,205 4.3 -6.7°
Maximum altitude 03:39:24 23° 2° (N) 1,487 4.1 -6.2°
Drops below altitude 10° 03:43:28 10° 55° (NE) 2,205 6.3 -5.7°
Sets 03:46:18 0° 70° (ENE) 3,126 6.8 -5.3°
